Tracking 20475 objects as of 27-Feb-2020
HD Live streaming from Space Station
objects crossing your sky now

COSMOS 842

Track COSMOS 842 now!
10-day predictions
COSMOS 842 is classified as:


NORAD ID: 9025
Int'l Code: 1976-070A
Perigee: 972.2 km
Apogee: 1,012.2 km
Inclination: 83.0 °
Period: 104.8 minutes
Semi major axis: 7363 km
RCS: 2.9713 m2 (large)
Launch date: July 21, 1976
Source: Commonwealth of Independent States (former USSR) (CIS)
Launch site: PLESETSK MISSILE AND SPACE COMPLEX (PKMTR)
aabbcc
Your satellite tracking list
Your tracking list is empty




NASA's NSSDC Master Catalog

Two Line Element Set (TLE):
1  9025U 76070A   20058.41620241  .00000039  00000-0  25056-4 0  9995
2  9025  82.9881 308.1084 0027145 200.4658 333.5519 13.74058190186228
Source of the keplerian elements: AFSPC